When you browse on this site, cookies collect data to enhance your experience and personalize the content and advertising you see.
Visit our Privacy Policy to learn more. By continuing to use the site, you agree to this use of cookies and data.
  • In Austria
  • List of Countries
  • For 7 days
  • Water Temperature
  • Satellite Maps
  • Weather Map
  • News
  • Weather Widgets
  • user-avatar
    Login

    Hourly Weather Gdansk

    Today, 19 March, Tuesday

    Time Temperature Precipitation Wind Pressure Humidity
    00:00 +1°C° 0 mm 6 mps 754 mmHg 81%
    01:00 +1°C° 0 mm 6 mps 754 mmHg 81%
    02:00 +1°C° 0 mm 6 mps 755 mmHg 82%
    03:00 0°C° 0 mm 5 mps 755 mmHg 84%
    04:00 0°C° 0 mm 5 mps 756 mmHg 85%
    05:00 0°C° 0 mm 5 mps 756 mmHg 85%
    06:00 0°C° 0 mm 5 mps 757 mmHg 85%
    07:00 0°C° 0 mm 5 mps 758 mmHg 85%
    08:00 +1°C° 0 mm 5 mps 758 mmHg 78%
    09:00 +3°C° 0 mm 6 mps 759 mmHg 70%
    10:00 +4°C° 0 mm 6 mps 760 mmHg 62%
    11:00 +4°C° 0 mm 6 mps 760 mmHg 59%
    12:00 +5°C° 0 mm 6 mps 761 mmHg 55%
    13:00 +6°C° 0 mm 5 mps 761 mmHg 52%
    14:00 +6°C° 0 mm 5 mps 762 mmHg 53%
    15:00 +5°C° 0 mm 5 mps 762 mmHg 54%
    16:00 +5°C° 0 mm 5 mps 763 mmHg 55%
    17:00 +4°C° 0 mm 4 mps 763 mmHg 60%
    18:00 +3°C° 0 mm 4 mps 764 mmHg 65%
    19:00 +1°C° 0 mm 3 mps 764 mmHg 70%
    20:00 +1°C° 0 mm 3 mps 765 mmHg 71%
    21:00 +1°C° 0 mm 3 mps 765 mmHg 72%
    22:00 0°C° 0 mm 3 mps 766 mmHg 73%
    23:00 0°C° 0 mm 3 mps 766 mmHg 74%

    Tomorrow, 20 March, Wednesday

    Time Temperature Precipitation Wind Pressure Humidity
    00:00 0°C° 0 mm 3 mps 767 mmHg 75%
    01:00 0°C° 0 mm 3 mps 767 mmHg 76%
    02:00 0°C° 0 mm 3 mps 767 mmHg 77%
    03:00 0°C° 0 mm 3 mps 767 mmHg 78%
    04:00 -1°C° 0 mm 4 mps 767 mmHg 79%
    05:00 -1°C° 0 mm 4 mps 768 mmHg 76%
    06:00 -1°C° 0 mm 4 mps 768 mmHg 74%
    07:00 0°C° 0 mm 4 mps 768 mmHg 72%
    08:00 +3°C° 0 mm 4 mps 768 mmHg 63%
    09:00 +4°C° 0 mm 4 mps 769 mmHg 53%
    10:00 +6°C° 0 mm 5 mps 769 mmHg 44%
    11:00 +7°C° 0 mm 5 mps 769 mmHg 44%
    12:00 +8°C° 0 mm 5 mps 768 mmHg 45%
    13:00 +9°C° 0 mm 6 mps 768 mmHg 45%
    14:00 +9°C° 0 mm 6 mps 768 mmHg 47%
    15:00 +9°C° 0 mm 6 mps 768 mmHg 49%
    16:00 +9°C° 0 mm 6 mps 767 mmHg 51%
    17:00 +8°C° 0 mm 6 mps 767 mmHg 59%
    18:00 +7°C° 0 mm 6 mps 767 mmHg 67%
    19:00 +7°C° 0 mm 6 mps 767 mmHg 75%
    20:00 +7°C° 0 mm 6 mps 768 mmHg 80%
    21:00 +6°C° 0 mm 5 mps 768 mmHg 84%
    22:00 +6°C° 0 mm 4 mps 768 mmHg 89%
    23:00 +6°C° 0 mm 4 mps 768 mmHg 90%

    Day after tomorrow, 21 March, Thursday

    Time Temperature Precipitation Wind Pressure Humidity
    00:00 +5°C° 0 mm 4 mps 768 mmHg 91%
    01:00 +5°C° 0 mm 4 mps 768 mmHg 92%
    02:00 +5°C° 0 mm 4 mps 768 mmHg 93%
    03:00 +5°C° 0 mm 4 mps 768 mmHg 93%
    04:00 +5°C° 0 mm 4 mps 769 mmHg 94%
    05:00 +5°C° 0 mm 4 mps 769 mmHg 93%
    06:00 +5°C° 0 mm 4 mps 769 mmHg 92%
    07:00 +6°C° 0 mm 4 mps 769 mmHg 91%
    08:00 +7°C° 0 mm 4 mps 769 mmHg 88%
    09:00 +7°C° 0 mm 4 mps 769 mmHg 86%
    10:00 +8°C° 0 mm 4 mps 769 mmHg 83%
    11:00 +10°C° 0 mm 4 mps 769 mmHg 79%
    12:00 +10°C° 0 mm 5 mps 769 mmHg 76%
    13:00 +12°C° 0 mm 5 mps 769 mmHg 72%
    14:00 +12°C° 0 mm 5 mps 769 mmHg 71%
    15:00 +12°C° 0 mm 5 mps 768 mmHg 70%
    16:00 +13°C° 0 mm 5 mps 768 mmHg 69%
    17:00 +12°C° 0 mm 5 mps 768 mmHg 74%
    18:00 +11°C° 0 mm 4 mps 768 mmHg 79%
    19:00 +10°C° 0 mm 4 mps 768 mmHg 85%
    20:00 +8°C° 0 mm 4 mps 768 mmHg 86%
    21:00 +8°C° 0 mm 4 mps 768 mmHg 87%
    22:00 +8°C° 0 mm 4 mps 768 mmHg 87%
    23:00 +8°C° 0 mm 4 mps 768 mmHg 88%

    22 March, Friday

    Time Temperature Precipitation Wind Pressure Humidity
    00:00 +7°C° 0 mm 4 mps 767 mmHg 89%
    01:00 +7°C° 0 mm 4 mps 767 mmHg 90%
    02:00 +7°C° 0 mm 4 mps 767 mmHg 90%
    03:00 +7°C° 0 mm 4 mps 767 mmHg 90%
    04:00 +7°C° 0 mm 5 mps 767 mmHg 89%
    05:00 +7°C° 0 mm 5 mps 767 mmHg 89%
    06:00 +8°C° 0 mm 5 mps 767 mmHg 88%
    07:00 +8°C° 0 mm 5 mps 767 mmHg 88%
    08:00 +9°C° 0 mm 6 mps 767 mmHg 83%
    09:00 +10°C° 0 mm 6 mps 767 mmHg 78%
    10:00 +11°C° 0 mm 7 mps 767 mmHg 73%
    11:00 +13°C° 0 mm 6 mps 767 mmHg 71%
    12:00 +13°C° 0 mm 6 mps 767 mmHg 69%
    13:00 +14°C° 0 mm 6 mps 766 mmHg 66%
    14:00 +13°C° 0 mm 6 mps 766 mmHg 68%
    15:00 +12°C° 0 mm 5 mps 766 mmHg 71%
    16:00 +12°C° 0 mm 5 mps 766 mmHg 73%
    17:00 +11°C° 0 mm 4 mps 766 mmHg 77%
    18:00 +10°C° 0 mm 3 mps 766 mmHg 82%
    19:00 +9°C° 0 mm 3 mps 766 mmHg 86%
    20:00 +8°C° 0 mm 3 mps 766 mmHg 88%
    21:00 +8°C° 0 mm 3 mps 766 mmHg 90%
    22:00 +8°C° 0 mm 3 mps 766 mmHg 92%
    23:00 +8°C° 0 mm 3 mps 765 mmHg 93%

    23 March, Saturday

    Time Temperature Precipitation Wind Pressure Humidity
    00:00 +8°C° 0 mm 3 mps 765 mmHg 93%
    01:00 +8°C° 0 mm 3 mps 765 mmHg 94%
    02:00 +7°C° 0 mm 4 mps 764 mmHg 93%
    03:00 +7°C° 0 mm 4 mps 764 mmHg 92%
    04:00 +7°C° 0 mm 4 mps 764 mmHg 91%
    05:00 +8°C° 0 mm 4 mps 763 mmHg 90%
    06:00 +8°C° 0 mm 5 mps 763 mmHg 89%
    07:00 +8°C° 0 mm 5 mps 763 mmHg 87%
    08:00 +10°C° 0 mm 6 mps 763 mmHg 80%
    09:00 +11°C° 0 mm 6 mps 763 mmHg 73%
    10:00 +14°C° 0 mm 7 mps 763 mmHg 65%
    11:00 +14°C° 0 mm 7 mps 763 mmHg 63%
    12:00 +15°C° 0 mm 7 mps 763 mmHg 61%
    13:00 +15°C° 0 mm 7 mps 763 mmHg 59%
    14:00 +14°C° 0 mm 7 mps 763 mmHg 61%
    15:00 +14°C° 0 mm 6 mps 763 mmHg 63%
    16:00 +13°C° 0 mm 6 mps 762 mmHg 64%
    17:00 +12°C° 0 mm 5 mps 763 mmHg 70%
    18:00 +11°C° 0 mm 4 mps 763 mmHg 76%
    19:00 +8°C° 0 mm 4 mps 763 mmHg 82%
    20:00 +9°C° 0 mm 3 mps 763 mmHg 85%
    21:00 +8°C° 0 mm 3 mps 763 mmHg 87%
    22:00 +8°C° 0 mm 3 mps 763 mmHg 90%
    23:00 +7°C° 0 mm 3 mps 762 mmHg 92%

    24 March, Sunday

    Time Temperature Precipitation Wind Pressure Humidity
    00:00 +7°C° 0 mm 2 mps 762 mmHg 93%
    01:00 +7°C° 0 mm 2 mps 762 mmHg 94%
    02:00 +6°C° 0 mm 2 mps 761 mmHg 94%
    03:00 +6°C° 0 mm 2 mps 761 mmHg 94%
    04:00 +6°C° 0 mm 2 mps 761 mmHg 95%
    05:00 +7°C° 0 mm 3 mps 760 mmHg 92%
    06:00 +8°C° 0 mm 3 mps 760 mmHg 90%
    07:00 +7°C° 0 mm 4 mps 760 mmHg 87%
    08:00 +10°C° 0 mm 4 mps 759 mmHg 79%
    09:00 +10°C° 0 mm 5 mps 759 mmHg 72%
    10:00 +13°C° 0 mm 6 mps 759 mmHg 64%
    11:00 +13°C° 0.1 mm 6 mps 758 mmHg 65%
    12:00 +11°C° 0.1 mm 7 mps 758 mmHg 66%
    13:00 +11°C° 0.1 mm 7 mps 758 mmHg 67%
    14:00 +10°C° 0 mm 7 mps 758 mmHg 67%
    15:00 +9°C° 0 mm 6 mps 758 mmHg 67%
    16:00 +8°C° 0 mm 6 mps 758 mmHg 66%
    17:00 +7°C° 0 mm 5 mps 758 mmHg 68%
    18:00 +6°C° 0 mm 5 mps 757 mmHg 70%
    19:00 +5°C° 0 mm 5 mps 757 mmHg 72%
    20:00 +3°C° 0 mm 6 mps 757 mmHg 72%
    21:00 +3°C° 0 mm 6 mps 756 mmHg 72%
    22:00 +3°C° 0 mm 7 mps 756 mmHg 73%
    23:00 +2°C° 0.1 mm 8 mps 756 mmHg 73%
    Show more